Weather History for Tindouf, Algeria

Change the Weather History Date:

Monday, February 18, 2013

  Actual Average Record
Temperature  
Mean Temperature 65 °F -  
Max Temperature 79 °F - - ()
Min Temperature 51 °F - - ()
Growing Degree Days 15 (Base 50)    
Moisture  
Dew Point 26 °F    
Average Humidity 23    
Maximum Humidity 44    
Minimum Humidity 5    
Precipitation  
Precipitation 0.00 in - - ()
Sea Level Pressure  
Sea Level Pressure 29.93 in    
Wind  
Wind Speed 11 mph ()    
Max Wind Speed 18 mph    
Max Gust Speed -    
Visibility 7.5 miles    
Events      
T = Trace of Precipitation, MM = Missing Value Source: Averaged Metar Reports

Daily Weather History Graph

Daily Weather History Graph

Search for Another Location

Airport:

Trip Planner

Search our weather history database for the weather conditions in past years. The results will help you decide how hot, cold, wet, or windy it might be!

Date:

Astronomy

Feb. 18, 2013 Rise Set
Actual Time 8:07 AM CET 7:26 PM CET
Civil Twilight 7:43 AM CET 7:49 PM CET
Nautical Twilight 7:16 AM CET 8:17 PM CET
Astronomical Twilight 6:48 AM CET 8:44 PM CET
Moon 1:16 PM CET (2/18) 2:21 AM CET (2/18)
Length of Visible Light 12h 06m
Length of Day
11h 18m
First Quarter, 56% of the Moon is Illuminated
Feb 18
First Quarter
Feb 25
Full
Mar 4
Last Quarter
Mar 11
New
Mar 19
First Quarter

Hourly Weather History & Observations

Time (CET) Temp. Dew Point Humidity Pressure Visibility Wind Dir Wind Speed Gust Speed Precip Events Conditions
12:00 AM 60.8 °F 32.0 °F 34% 30.04 in - West 9.2 mph - N/A   Clear
1:00 AM 61 °F 31 °F 21% 30.00 in 9 mi SSW 9.2 mph - -   Clear
2:00 AM 59.0 °F 32.0 °F 36% 30.01 in - SW 9.2 mph - N/A   Clear
3:00 AM 59.0 °F 32.0 °F 36% 30.01 in - WSW 11.5 mph - N/A   Clear
4:00 AM 56 °F 31 °F 27% 29.95 in 9 mi WSW 13.8 mph - -   Clear
4:00 AM 57.2 °F 32.0 °F 38% 29.98 in - WSW 13.8 mph - N/A   Clear
5:00 AM 53.6 °F 30.2 °F 41% 29.98 in - WSW 11.5 mph - N/A   Clear
6:00 AM 51.8 °F 30.2 °F 44% 29.95 in - WSW 13.8 mph - N/A   Clear
7:00 AM 52 °F 31 °F 31% 29.93 in 9 mi WSW 11.5 mph - -   Clear
7:00 AM 51.8 °F 30.2 °F 44% 29.95 in - WSW 11.5 mph - N/A   Clear
8:00 AM 53.6 °F 30.2 °F 41% 29.98 in - WSW 11.5 mph - N/A   Clear
9:00 AM 55.4 °F 30.2 °F 38% 29.98 in - SW 11.5 mph - N/A   Clear
10:00 AM 59 °F 28 °F 20% 29.97 in 9 mi West 11.5 mph - -   Clear
10:00 AM 59.0 °F 28.4 °F 31% 29.98 in - West 11.5 mph - N/A   Clear
11:00 AM 68.0 °F 26.6 °F 21% 30.01 in - WSW 12.7 mph - N/A   Clear
12:00 PM 73.4 °F 26.6 °F 18% 30.01 in - WSW 16.1 mph - N/A   Clear
1:00 PM 76 °F 25 °F 7% 29.94 in 9 mi WSW 18.4 mph - -   Scattered Clouds
1:00 PM 77.0 °F 24.8 °F 14% 29.98 in - WSW 18.4 mph - N/A   Clear
2:00 PM 77.0 °F 24.8 °F 14% 29.95 in - WSW 18.4 mph - N/A   Clear
3:00 PM 78.8 °F 23.0 °F 13% 29.92 in - SSW 16.1 mph - N/A   Clear
4:00 PM 79 °F 20 °F 5% 29.84 in 6 mi SW 16.1 mph - -   Scattered Clouds
4:00 PM 78.8 °F 19.4 °F 11% 29.92 in - SW 16.1 mph - N/A   Clear
5:00 PM 78.8 °F 21.2 °F 12% 29.86 in - SW 11.5 mph - N/A   Clear
6:00 PM 77.0 °F 21.2 °F 12% 29.86 in - SSW 16.1 mph - N/A   Clear
7:00 PM 76 °F 20 °F 5% 29.81 in 6 mi SSW 16.1 mph - -   Scattered Clouds
7:00 PM 77.0 °F 19.4 °F 12% 29.83 in 6.2 mi SSW 16.1 mph - N/A   Scattered Clouds
8:00 PM 73.4 °F 21.2 °F 14% 29.83 in 6.2 mi WSW 5.8 mph - N/A   Mostly Cloudy
9:00 PM 69.8 °F 21.2 °F 16% 29.83 in - West 9.2 mph - N/A   Clear
10:00 PM 66 °F 24 °F 11% 29.83 in 6 mi NNW 9.2 mph - -   Partly Cloudy
10:00 PM 66.2 °F 24.8 °F 21% 29.86 in - NNW 9.2 mph - N/A   Clear
11:00 PM 64.4 °F 24.8 °F 22% 29.86 in - NW 8.1 mph - N/A   Clear